Location: Cheadle
(51.0146°N, 113.5417°W)
Time: 22:54:01
(UTC+00:00)

BlueWalker 3 - Visible Passes

Search period start: 29 May 2023 00:00
Search period end: 08 June 2023 00:00
Orbit: 495 x 512 km, 53.2° (Epoch: 29 May)

Date Brightness Start Highest point End Pass type
(mag) Time Alt. Az. Time Alt. Az. Time Alt. Az.
29 May 1.8 05:40:36 10° WSW 05:44:25 67° SSE 05:48:17 10° ENE visible
29 May 2.4 07:19:12 10° W 07:23:03 63° N 07:26:55 10° ENE visible
29 May 2.0 08:57:54 10° WNW 09:01:48 80° NNE 09:05:43 10° ESE visible
29 May 2.6 10:36:35 10° W 10:40:09 34° SW 10:43:43 10° SSE visible
30 May 1.8 05:20:15 10° WSW 05:24:05 68° SSE 05:27:56 10° ENE visible
30 May 2.4 06:58:52 10° W 07:02:42 62° N 07:06:35 10° ENE visible
30 May 2.0 08:37:34 10° WNW 08:41:28 81° NNE 08:45:23 10° ESE visible
30 May 2.6 10:16:16 10° W 10:19:49 33° SW 10:23:21 10° SSE visible
31 May 1.8 04:59:54 10° WSW 05:03:44 70° SSE 05:07:36 10° ENE visible
31 May 2.4 06:38:32 10° W 06:42:22 62° N 06:46:15 10° ENE visible
31 May 2.0 08:17:14 10° WNW 08:21:08 82° NNE 08:25:02 10° ESE visible
31 May 2.6 09:55:56 10° W 09:59:28 33° SW 10:02:58 10° SSE visible
01 Jun 1.9 04:39:34 10° WSW 04:43:23 71° SSE 04:47:15 10° ENE visible
01 Jun 2.4 06:18:11 10° W 06:22:01 62° N 06:25:54 10° ENE visible
01 Jun 1.9 07:56:53 10° WNW 08:00:47 83° NNE 08:04:41 10° ESE visible
01 Jun 2.6 09:35:36 10° W 09:39:06 32° SW 09:42:36 10° SSE visible
02 Jun 1.9 04:19:11 10° WSW 04:23:01 72° SSE 04:26:54 10° ENE visible
02 Jun 2.5 05:57:50 10° W 06:01:40 62° N 06:05:32 10° ENE visible
02 Jun 1.9 07:36:32 10° WNW 07:40:25 84° NNE 07:44:19 10° ESE visible
02 Jun 2.7 09:15:15 10° W 09:18:43 31° SW 09:22:12 10° SSE visible
03 Jun 2.5 05:37:28 10° W 05:41:19 62° N 05:45:10 10° ENE visible
03 Jun 1.9 07:16:09 10° WNW 07:20:03 85° NNE 07:23:58 10° ESE visible
03 Jun 2.7 08:54:54 10° W 08:58:21 31° SW 08:59:40 24° S visible
04 Jun 2.5 05:17:07 10° W 05:20:56 61° N 05:24:48 10° E visible
04 Jun 1.9 06:55:48 10° WNW 06:59:41 86° NNE 07:03:35 10° ESE visible
04 Jun 2.7 08:34:32 10° W 08:37:57 30° SW 08:38:17 29° SSW visible
05 Jun 2.5 04:56:44 10° W 05:00:34 61° N 05:04:25 10° E visible
05 Jun 1.9 06:35:25 10° WNW 06:39:18 87° NNE 06:42:53 12° ESE visible
05 Jun 2.8 08:14:10 10° W 08:17:31 29° SW 08:17:31 29° SW visible
06 Jun 2.5 04:36:21 10° W 04:40:10 61° N 04:44:02 10° E visible
06 Jun 1.9 06:15:02 10° WNW 06:18:55 88° NNE 06:22:24 13° ESE visible
06 Jun 2.9 07:53:48 10° W 07:57:02 29° SW 07:57:02 29° SW visible
07 Jun 1.9 05:54:38 10° WNW 05:58:31 89° N 06:02:04 12° ESE visible
07 Jun 2.9 07:33:25 10° W 07:36:43 28° SW 07:36:43 28° SW visible
